When you browse on this site, cookies collect data to enhance your experience and personalize the content and advertising you see.
Visit our Privacy Policy to learn more. By continuing to use the site, you agree to this use of cookies and data.
  • In Romania
  • List of Countries
  • For 7 days
  • Water Temperature
  • Satellite Maps
  • Weather Map
  • Weather Widgets
  • user-avatar
    Login

    Hourly Weather Kryukovo

    Today, 19 July, Friday

    Time Temperature Precipitation Wind Pressure Humidity
    00:00 +12°C° 0 mm 3 mps 736 mmHg 90%
    01:00 +12°C° 0 mm 3 mps 736 mmHg 92%
    02:00 +12°C° 0 mm 3 mps 736 mmHg 93%
    03:00 +12°C° 0 mm 3 mps 736 mmHg 97%
    04:00 +12°C° 0.2 mm 4 mps 736 mmHg 96%
    05:00 +13°C° 0.2 mm 4 mps 736 mmHg 95%
    06:00 +13°C° 0.2 mm 5 mps 736 mmHg 93%
    07:00 +13°C° 0.5 mm 5 mps 736 mmHg 93%
    08:00 +13°C° 0.5 mm 6 mps 736 mmHg 93%
    09:00 +14°C° 0.5 mm 6 mps 736 mmHg 93%
    10:00 +14°C° 0.2 mm 6 mps 736 mmHg 91%
    11:00 +15°C° 0.2 mm 6 mps 737 mmHg 89%
    12:00 +16°C° 0.2 mm 6 mps 737 mmHg 87%
    13:00 +17°C° 0.2 mm 6 mps 737 mmHg 84%
    14:00 +18°C° 0.2 mm 7 mps 737 mmHg 80%
    15:00 +20°C° 0.2 mm 7 mps 737 mmHg 77%
    16:00 +20°C° 0.2 mm 6 mps 737 mmHg 78%
    17:00 +20°C° 0.2 mm 6 mps 738 mmHg 78%
    18:00 +20°C° 0.2 mm 6 mps 738 mmHg 79%
    19:00 +17°C° 0.1 mm 5 mps 738 mmHg 82%
    20:00 +16°C° 0.1 mm 5 mps 738 mmHg 86%
    21:00 +15°C° 0.1 mm 4 mps 738 mmHg 89%
    22:00 +15°C° 0 mm 5 mps 739 mmHg 88%
    23:00 +14°C° 0 mm 5 mps 739 mmHg 88%

    Tomorrow, 20 July, Saturday

    Time Temperature Precipitation Wind Pressure Humidity
    00:00 +14°C° 0 mm 5 mps 739 mmHg 87%
    01:00 +13°C° 0 mm 5 mps 739 mmHg 88%
    02:00 +13°C° 0 mm 5 mps 739 mmHg 89%
    03:00 +13°C° 0 mm 5 mps 740 mmHg 89%
    04:00 +13°C° 0 mm 5 mps 740 mmHg 88%
    05:00 +14°C° 0 mm 5 mps 740 mmHg 86%
    06:00 +14°C° 0 mm 5 mps 740 mmHg 85%
    07:00 +15°C° 0 mm 5 mps 740 mmHg 83%
    08:00 +15°C° 0 mm 6 mps 741 mmHg 81%
    09:00 +16°C° 0 mm 6 mps 741 mmHg 80%
    10:00 +17°C° 0.1 mm 6 mps 741 mmHg 77%
    11:00 +19°C° 0.1 mm 6 mps 741 mmHg 75%
    12:00 +20°C° 0.1 mm 6 mps 742 mmHg 73%
    13:00 +21°C° 0.5 mm 6 mps 742 mmHg 72%
    14:00 +21°C° 0.5 mm 7 mps 742 mmHg 72%
    15:00 +21°C° 0.5 mm 7 mps 742 mmHg 71%
    16:00 +21°C° 0.3 mm 6 mps 742 mmHg 74%
    17:00 +21°C° 0.3 mm 6 mps 742 mmHg 77%
    18:00 +20°C° 0.3 mm 5 mps 742 mmHg 79%
    19:00 +19°C° 0.2 mm 4 mps 742 mmHg 83%
    20:00 +18°C° 0.2 mm 4 mps 743 mmHg 86%
    21:00 +17°C° 0.2 mm 3 mps 743 mmHg 89%
    22:00 +16°C° 0 mm 3 mps 743 mmHg 91%
    23:00 +15°C° 0 mm 4 mps 743 mmHg 92%

    Day after tomorrow, 21 July, Sunday

    Time Temperature Precipitation Wind Pressure Humidity
    00:00 +15°C° 0 mm 4 mps 743 mmHg 93%
    01:00 +14°C° 0 mm 4 mps 743 mmHg 94%
    02:00 +14°C° 0 mm 4 mps 743 mmHg 94%
    03:00 +14°C° 0 mm 4 mps 743 mmHg 94%
    04:00 +14°C° 0 mm 4 mps 743 mmHg 94%
    05:00 +14°C° 0 mm 4 mps 744 mmHg 93%
    06:00 +14°C° 0 mm 4 mps 744 mmHg 93%
    07:00 +15°C° 0 mm 4 mps 744 mmHg 88%
    08:00 +17°C° 0 mm 5 mps 744 mmHg 84%
    09:00 +19°C° 0 mm 5 mps 744 mmHg 79%
    10:00 +20°C° 0.1 mm 5 mps 744 mmHg 77%
    11:00 +21°C° 0.1 mm 5 mps 744 mmHg 74%
    12:00 +22°C° 0.1 mm 5 mps 744 mmHg 71%
    13:00 +22°C° 0.5 mm 5 mps 744 mmHg 71%
    14:00 +23°C° 0.5 mm 5 mps 743 mmHg 70%
    15:00 +23°C° 0.5 mm 5 mps 743 mmHg 70%
    16:00 +23°C° 0.3 mm 5 mps 743 mmHg 72%
    17:00 +22°C° 0.3 mm 5 mps 743 mmHg 73%
    18:00 +22°C° 0.3 mm 4 mps 743 mmHg 75%
    19:00 +21°C° 0 mm 4 mps 743 mmHg 79%
    20:00 +19°C° 0 mm 3 mps 743 mmHg 83%
    21:00 +18°C° 0 mm 2 mps 743 mmHg 87%
    22:00 +17°C° 0 mm 2 mps 743 mmHg 88%
    23:00 +16°C° 0 mm 2 mps 743 mmHg 89%

    22 July, Monday

    Time Temperature Precipitation Wind Pressure Humidity
    00:00 +16°C° 0 mm 2 mps 743 mmHg 90%
    01:00 +15°C° 0 mm 2 mps 743 mmHg 90%
    02:00 +15°C° 0 mm 2 mps 744 mmHg 91%
    03:00 +15°C° 0 mm 2 mps 744 mmHg 92%
    04:00 +15°C° 0 mm 2 mps 744 mmHg 92%
    05:00 +15°C° 0 mm 2 mps 744 mmHg 91%
    06:00 +15°C° 0 mm 1 mps 744 mmHg 91%
    07:00 +18°C° 0 mm 1 mps 743 mmHg 85%
    08:00 +20°C° 0 mm 1 mps 743 mmHg 80%
    09:00 +21°C° 0 mm 1 mps 743 mmHg 74%
    10:00 +22°C° 0 mm 1 mps 743 mmHg 69%
    11:00 +23°C° 0 mm 1 mps 743 mmHg 64%
    12:00 +24°C° 0 mm 1 mps 743 mmHg 59%
    13:00 +25°C° 0 mm 1 mps 743 mmHg 57%
    14:00 +25°C° 0 mm 1 mps 742 mmHg 56%
    15:00 +25°C° 0 mm 1 mps 742 mmHg 54%
    16:00 +25°C° 0 mm 1 mps 742 mmHg 56%
    17:00 +25°C° 0 mm 1 mps 742 mmHg 59%
    18:00 +25°C° 0 mm 1 mps 742 mmHg 61%
    19:00 +23°C° 0 mm 1 mps 741 mmHg 65%
    20:00 +21°C° 0 mm 1 mps 741 mmHg 68%
    21:00 +20°C° 0 mm 1 mps 741 mmHg 72%
    22:00 +19°C° 0 mm 1 mps 741 mmHg 75%
    23:00 +18°C° 0 mm 1 mps 741 mmHg 77%

    23 July, Tuesday

    Time Temperature Precipitation Wind Pressure Humidity
    00:00 +18°C° 0 mm 1 mps 741 mmHg 80%
    01:00 +16°C° 0 mm 2 mps 740 mmHg 82%
    02:00 +16°C° 0 mm 2 mps 740 mmHg 84%
    03:00 +15°C° 0 mm 2 mps 740 mmHg 86%
    04:00 +15°C° 0 mm 2 mps 740 mmHg 87%
    05:00 +15°C° 0 mm 2 mps 740 mmHg 88%
    06:00 +15°C° 0 mm 2 mps 740 mmHg 88%
    07:00 +17°C° 0 mm 3 mps 740 mmHg 84%
    08:00 +18°C° 0 mm 3 mps 740 mmHg 79%
    09:00 +20°C° 0 mm 3 mps 740 mmHg 75%
    10:00 +21°C° 0 mm 4 mps 740 mmHg 72%
    11:00 +22°C° 0 mm 4 mps 740 mmHg 69%
    12:00 +22°C° 0 mm 4 mps 740 mmHg 66%
    13:00 +23°C° 0 mm 4 mps 740 mmHg 65%
    14:00 +23°C° 0 mm 4 mps 740 mmHg 63%
    15:00 +23°C° 0 mm 4 mps 739 mmHg 62%
    16:00 +24°C° 0 mm 3 mps 739 mmHg 64%
    17:00 +24°C° 0 mm 3 mps 739 mmHg 66%
    18:00 +22°C° 0 mm 3 mps 739 mmHg 68%
    19:00 +21°C° 0 mm 3 mps 739 mmHg 70%
    20:00 +19°C° 0 mm 3 mps 740 mmHg 72%
    21:00 +17°C° 0 mm 2 mps 740 mmHg 74%
    22:00 +17°C° 0 mm 3 mps 740 mmHg 76%
    23:00 +16°C° 0 mm 3 mps 740 mmHg 78%

    24 July, Wednesday

    Time Temperature Precipitation Wind Pressure Humidity
    00:00 +14°C° 0 mm 3 mps 740 mmHg 80%
    01:00 +14°C° 0 mm 3 mps 740 mmHg 82%
    02:00 +13°C° 0 mm 3 mps 740 mmHg 83%
    03:00 +14°C° 0 mm 2 mps 740 mmHg 84%
    04:00 +13°C° 0 mm 3 mps 740 mmHg 85%
    05:00 +13°C° 0 mm 3 mps 740 mmHg 86%
    06:00 +13°C° 0 mm 3 mps 740 mmHg 88%
    07:00 +16°C° 0 mm 3 mps 740 mmHg 83%
    08:00 +17°C° 0 mm 3 mps 740 mmHg 79%
    09:00 +19°C° 0 mm 4 mps 740 mmHg 74%
    10:00 +20°C° 0 mm 4 mps 740 mmHg 72%
    11:00 +21°C° 0 mm 4 mps 740 mmHg 69%
    12:00 +22°C° 0 mm 4 mps 740 mmHg 66%
    13:00 +22°C° 0.1 mm 4 mps 740 mmHg 67%
    14:00 +22°C° 0.1 mm 4 mps 740 mmHg 67%
    15:00 +22°C° 0.1 mm 5 mps 740 mmHg 67%
    16:00 +22°C° 0.1 mm 4 mps 740 mmHg 68%
    17:00 +22°C° 0.1 mm 4 mps 740 mmHg 70%
    18:00 +21°C° 0.1 mm 4 mps 740 mmHg 72%
    19:00 +20°C° 0 mm 3 mps 740 mmHg 73%
    20:00 +19°C° 0 mm 3 mps 740 mmHg 74%
    21:00 +17°C° 0 mm 3 mps 740 mmHg 75%
    22:00 +17°C° 0 mm 3 mps 740 mmHg 78%
    23:00 +16°C° 0 mm 3 mps 741 mmHg 81%
    Show more